Regional Weather Roundup
Issued by NWS Grand Forks, ND

Home | Current Version | Previous Version | Text Only | Print | Product List | Glossary On
Versions: 1 2 3 4 5 6 7 8 9 10 11 12 13 14 15 16 17 18 19 20 21 22 23 24 25 26 27 28 29 30 31 32 33 34 35 36 37 38 39 40 41 42 43 44 45 46 47 48 49 50
000
ASUS43 KFGF 301410
RWRFGF
PRAIRIE TO PINES  WEATHER ROUNDUP
NATIONAL WEATHER SERVICE EASTERN NORTH DAKOTA/GRAND FORKS ND
900 AM CDT SUN AUG 30 2015

 **SATELLITE DATA USED TO AUGMENT SKY COVER AT AUTOMATED STATIONS**
 *****  WEATHER ACROSS EASTERN NORTH DAKOTA  *****

CITY           SKY/WX    TMP DP  RH WIND       PRES   REMARKS
GRAND FORKS    PTSUNNY   64  63  94 S14G21    29.77S
GRAND FRKS AFB CLOUDY    66  65  97 S16       29.77S
GRAND FRKS NWS   N/A     64 N/A N/A S21         N/A
DEVILS LAKE    SUNNY     72  61  68 SE10      29.73S
FARGO          SUNNY     67  62  84 S15       29.83S
WAHPETON ARPT  SUNNY     63  59  88 SE12      29.87S
$$

 ***** WEATHER ACROSS CENTRAL AND WESTERN NORTH DAKOTA  *****

CITY           SKY/WX    TMP DP  RH WIND       PRES   REMARKS
BISMARCK       MOSUNNY   70  62  76 SE8       29.73F
MINOT          CLOUDY    72  59  63 SE5       29.65F
JAMESTOWN      MOSUNNY   66  64  93 S13       29.79S
MINOT AFB      CLOUDY    64  64  99 CALM      29.64F
GARRISON         N/A     70  61  73 SE6       29.70F
WILLISTON      PTSUNNY   70  54  56 CALM      29.64F
DICKINSON      NOT AVBL
HETTINGER      PTSUNNY   70  49  47 VRB3      29.76S
$$

 *****  OTHER AIRPORT OBSERVATIONS IN OUR AREA  *****

CITY           SKY/WX    TMP DP  RH WIND       PRES   REMARKS
WALHALLA       FAIR      66  66 100 MISG      29.73S
GRAFTON AIRPOR CLOUDY    66  66 100 S13       29.77S
VALLEY CITY AR FAIR      66  66 100 S12       29.81S
CANDO          NOT AVBL
CAVALIER APRT  FOG       66  66 100 S10       29.74F VSB 1/2
GWINNER          N/A     70  66  88 S12       29.84S
SHEYENNE NWR     N/A     65  64  96 S7        29.95S
ROLLA          FAIR      70  66  88 S7        29.74S
 ***** THE ABOVE OBSERVATIONS ARE NON NWS ARE NOT QUALITY
       CONTROLLED AND MAY MIS-REPORT RAIN FOR SNOW...
$$

  *****  WEATHER ACROSS NORTHERN MINNESOTA  *****

CITY           SKY/WX    TMP DP  RH WIND       PRES   REMARKS
FLAG ISLAND    MOSUNNY   66  64  94 S5        29.80S
WARROAD        CLOUDY    68  64  88 SW8       29.81S
ROSEAU         CLOUDY    66  63  88 S9        29.80S
HALLOCK        CLOUDY    66  64  94 S15       29.76S
THF RVR FALLS  PTSUNNY  N/A N/A N/A S8        29.81S
BAUDETTE       PTSUNNY   68  64  87 SW7       29.82S
WASKISH        PTSUNNY   66  64  94 S5        29.85S
CROOKSTON      PTSUNNY   68  64  88 S13G20    29.81S
STEPHEN NDAWN    N/A     66  66 100 S10         N/A
GREENBUSH NDAW   N/A     68  66  94 S7          N/A
$$
  *****  WEATHER ACROSS CENTRAL AND WEST MINNESOTA  *****

CITY           SKY/WX    TMP DP  RH WIND       PRES   REMARKS
FOSSTON        MOSUNNY   66  63  88 S9        29.85F
BEMIDJI        CLOUDY    64  63  94 S9        29.88S
PARK RAPIDS    CLOUDY    65  61  87 S9        29.91S
ELBOW LAKE     FAIR      63  62  96 S16       29.90S FOG
WADENA         SUNNY     63  61  94 S7        29.92S FOG
DETROIT LAKES  SUNNY     66  63  88 S12       29.89S
MOORHEAD       SUNNY     64  63  94 S17       29.85S
FERGUS FALLS   SUNNY     64  64 100 S13       29.89S FOG
MORRIS MN      SUNNY     64  63  94 S13G20    29.91S FOG
STAPLES        CLOUDY    63  61  94 S9        29.93S FOG
$$
  *****  WEATHER ELSEWHERE ACROSS MINNESOTA  *****

CITY           SKY/WX    TMP DP  RH WIND       PRES   REMARKS
DULUTH         MOSUNNY   66  60  81 SW12      29.95F
INTRNTL FALLS  CLOUDY    67  65  93 S8        29.85S
ELY            CLOUDY    63  59  88 SW8       29.92S
CLOQUET        MOSUNNY   64  61  88 S8        29.95F
WHEATON        SUNNY     63  61  94 SE12      29.90S FOG
BRAINERD       CLOUDY    63  60  90 S12       29.95S
HIBBING        CLOUDY    64  61  90 S7        29.93F
ALEXANDRIA     SUNNY     64  62  93 S10       29.95S
SAINT CLOUD    CLOUDY    61  60  97 S10       29.97S
MINNEAPOLIS    CLOUDY    63  59  87 S9        30.00S
$$

  *****  WEATHER ACROSS SOUTH DAKOTA  *****

CITY           SKY/WX    TMP DP  RH WIND       PRES   REMARKS
SIOUX FALLS    CLOUDY    62  61  96 S12       29.99F FOG
BROOKINGS      CLOUDY    63  59  88 S13       29.99S
WATERTOWN      SUNNY     64  62  93 S15       29.92F
HURON          PTSUNNY   64  62  93 S16       29.89S
SISSETON         N/A     67  63  87 S7        29.86S
ABERDEEN       MOSUNNY   66  63  90 S13       29.85S
MITCHELL       MOSUNNY   65  64  97 S16       29.93F
PIERRE         MOSUNNY   72  56  57 SE10      29.82S
MOBRIDGE       PTSUNNY   70  62  76 SE14      29.77F
RAPID CITY     SUNNY     67  51  56 SE6       29.84S
$$

  *****  SOME WEATHER IN NEARBY STATES *****

CITY           SKY/WX    TMP DP  RH WIND       PRES   REMARKS
GLASGOW MT     PTSUNNY   73  46  38 N16       29.69S HAZE
GREAT FALLS MT CLOUDY    62  51  67 S8        29.82F HAZE
CHEYENNE WY    SUNNY     68  40  35 W9        30.14S
SCOTTSBLUFF NE SUNNY     64  48  56 E5        29.99R
OMAHA NE       CLOUDY    64  61  90 S8        30.06R FOG
DES MOINES IA  DRZL/FOG  64  62  93 S3        30.06R VSB 1/8
DAVENPORT IA   FOG       64  63  96 E6        30.09R VSB 1
CHICAGO IL     CLOUDY    67  63  87 CALM      30.07S FOG
EAU CLAIRE WI  SUNNY     64  60  87 S7        30.03F
LA CROSSE WI   FOG       61  61 100 SE5       30.06S VSB 1/4
$$

  *****  SOME NATIONAL WEATHER *****

CITY           SKY/WX    TMP DP  RH WIND       PRES   REMARKS
LA GUARDIA NY  MOSUNNY   79  64  60 NW3       30.10S
RALEIGH NC     PTSUNNY   77  62  59 SW5       30.18R
ATLANTA GA     RAIN      66  64  94 CALM      30.15R FOG
NEW ORLEANS LA MOSUNNY   82  69  64 N5        30.04S
OKLAHOMA CITY  MOSUNNY   71  65  81 N5        30.02R
ALBUQUERQUE NM MOSUNNY   67  51  56 N7        30.25R
SALT LAKE CITY PTSUNNY   75  50  41 NW9       29.97R
LOS ANGELES CA PTCLDY    72  67  84 NE5       29.89R
BOISE ID       CLEAR     59  44  57 CALM      29.97R
SEATTLE WA     RAIN      56  54  93 S9        29.83R
$$

*** WEATHER ACROSS MANITOBA...SASKATCHEWAN AND ONTARIO ***
                ***ONTARIO***

CITY           SKY/WX    TMP DP  RH WIND       PRES   REMARKS
GERALDTON      CLOUDY    64  61  88 S14       29.82F FOG
THUNDER BAY    MOSUNNY   61  59  94 VRB2      29.87F
SIOUX LOOKOUT  CLOUDY    68  64  88 SW8       29.81S
TORONTO        PTSUNNY   70  61  73 N5        30.09S
BIG TROUT LK   MOSUNNY   70  63  78 NW8       29.61R
PICKLE LAKE    CLOUDY    70  64  83 W12       29.71S
DRYDEN         CLOUDY    68  63  83 SW12      29.82S
KENORA         CLOUDY    66  64  94 S9        29.81S FOG
$$
                *** MANITOBA***

CITY           SKY/WX    TMP DP  RH WIND       PRES   REMARKS
BRANDON        PTSUNNY   66  63  88 E9        29.69S SMOKE
DAUPHIN        MOSUNNY   63  57  82 NE5       29.69F
ISLAND LAKE    CLOUDY    61  57  88 N9        29.74R
PILOT MOUND      N/A     70  66  88 S10         N/A
THE PAS        CLOUDY    61  57  88 E9G17     29.69S
THOMPSON       PTSUNNY   48  45  87 NE10      29.82R
WINNIPEG       PTSUNNY   70  68  94 S8        29.73S
LYNN LAKE      CLOUDY    50  48  93 MISG      29.76F
CHURCHILL      PTSUNNY   50  46  87 E12       29.90R
$$
                ***SASKATCHEWAN***

CITY           SKY/WX    TMP DP  RH WIND       PRES   REMARKS
ESTEVAN        CLOUDY    68  59  73 E7        29.63F SMOKE
KINDERSLEY     MOSUNNY   59  41  51 S8        29.63S
LLOYDMINSTER   MOSUNNY   57  45  62 SW12      29.52S
PRINCE ALBERT  CLOUDY    61  59  94 E5        29.55F
REGINA         CLOUDY    66  54  63 VRB2      29.65S SMOKE
YORKTON        SUNNY     68  55  64 S5        29.65R
N. BATTLEFORD    N/A     63  43  48 SW8       29.58R
LA RONGE       CLOUDY    63  59  88 E10G17    29.53F
SASKATOON      PTSUNNY   61  55  82 SW9       29.61F SMOKE
SWIFT CURRENT  SUNNY     68  43  40 W9        29.70F
$$
NOTE: THESE ARE AUTOMATED STATIONS WITH LIMITED QUALITY CONTROL
      "FAIR" INDICATES FEW OR NO CLOUDS BELOW 12,000 FEET WITH NO
      SIGNIFICANT WEATHER AND/OR OBSTRUCTIONS TO VISIBILITY.
      SKY/WX - SKY CONDITION AND SIGNIFICANT WEATHER.
      TMP - AIR TEMPERATURE.    DP   - DEWPOINT TEMPERATURE.
      RH  - RELATIVE HUMIDITY.  PRES - PRESSURE.
      HX  - HEAT INDEX.         WCI  - WIND CHILL INDEX.
$



USA.gov is the U.S. government's official web portal to all federal, state and local government web resources and services.